Вернуться в каталог

ARIANE 3 DEB

LostGTO
NORAD 33539·DEBRIS·🇫🇷 France

Запущен Sep 8, 1988 с Guiana Space Centre

Loading…

TLE

УстаревшееSource: Space-Track

Эпоха: Mar 25, 2024, 20:53 UTC

1 33539U 88081P   24085.87059367 -.00000264  00000-0 -12668-1 0  9990
2 33539   7.8928  42.0153 7109372 226.4502  46.9462  2.19827325 26811

Отслеживайте ARIANE 3 DEB в реальном времени с AllMySat

Download on the App Store